Year,Month,Day,Hour,Minute,Value (Times are PST for temperature in C)
2014,09,22,01,51,13.70
2014,09,22,01,52,13.70
2014,09,22,01,53,13.70
2014,09,22,01,54,13.70
2014,09,22,01,55,13.70
2014,09,22,01,56,13.70
2014,09,22,01,57,13.70
2014,09,22,01,58,13.70
2014,09,22,01,59,13.70
2014,09,22,02,00,13.70
2014,09,22,02,01,13.70
2014,09,22,02,02,13.70
2014,09,22,02,03,13.70
2014,09,22,02,04,13.70
2014,09,22,02,05,13.80
2014,09,22,02,06,13.80
2014,09,22,02,07,13.80
2014,09,22,02,08,13.80
2014,09,22,02,09,13.80
2014,09,22,02,10,13.80
2014,09,22,02,11,13.80
2014,09,22,02,12,13.80
2014,09,22,02,13,13.80
2014,09,22,02,14,13.80
2014,09,22,02,15,13.80
2014,09,22,02,16,13.80
2014,09,22,02,17,13.80
2014,09,22,02,18,13.80
2014,09,22,02,19,13.80
2014,09,22,02,20,13.80
2014,09,22,02,21,13.80
2014,09,22,02,22,13.80
2014,09,22,02,23,13.80
2014,09,22,02,24,13.80
2014,09,22,02,25,13.80
2014,09,22,02,26,13.80
2014,09,22,02,27,13.80
2014,09,22,02,28,13.80
2014,09,22,02,29,13.80
2014,09,22,02,30,13.80
2014,09,22,02,31,13.80
2014,09,22,02,32,13.80
2014,09,22,02,33,13.80
2014,09,22,02,34,13.80
2014,09,22,02,35,13.30
2014,09,22,02,36,13.30
2014,09,22,02,37,13.30
2014,09,22,02,38,13.30
2014,09,22,02,39,13.30
2014,09,22,02,40,13.30
2014,09,22,02,41,13.30
2014,09,22,02,42,13.30
2014,09,22,02,43,13.30
2014,09,22,02,44,13.30
2014,09,22,02,45,13.30
2014,09,22,02,46,13.30
2014,09,22,02,47,13.30
2014,09,22,02,48,13.30
2014,09,22,02,49,13.30
2014,09,22,02,51,13.80
2014,09,22,02,52,13.80
2014,09,22,02,53,13.80
2014,09,22,02,54,13.80
2014,09,22,02,55,13.80
2014,09,22,02,56,13.80
2014,09,22,02,57,13.80
2014,09,22,02,58,13.80
2014,09,22,02,59,13.80
2014,09,22,03,00,13.80
2014,09,22,03,01,13.80
2014,09,22,03,02,13.80
2014,09,22,03,03,13.80
2014,09,22,03,04,13.80
2014,09,22,03,05,13.90
2014,09,22,03,06,13.90
2014,09,22,03,07,13.90
2014,09,22,03,08,13.90
2014,09,22,03,09,13.90
2014,09,22,03,10,13.90
2014,09,22,03,11,13.90
2014,09,22,03,12,13.90
2014,09,22,03,13,13.90
2014,09,22,03,14,13.90
2014,09,22,03,15,13.90
2014,09,22,03,16,13.90
2014,09,22,03,17,13.90
2014,09,22,03,18,13.90
2014,09,22,03,19,13.90
2014,09,22,03,20,13.60
2014,09,22,03,21,13.60
2014,09,22,03,22,13.60
2014,09,22,03,23,13.60
2014,09,22,03,24,13.60
2014,09,22,03,25,13.60
2014,09,22,03,26,13.60
2014,09,22,03,27,13.60
2014,09,22,03,28,13.60
2014,09,22,03,29,13.60
2014,09,22,03,30,13.60
2014,09,22,03,31,13.60
2014,09,22,03,32,13.60
2014,09,22,03,33,13.60
2014,09,22,03,34,13.60
2014,09,22,03,35,13.40
2014,09,22,03,36,13.40
2014,09,22,03,37,13.40
2014,09,22,03,38,13.40
2014,09,22,03,39,13.40
2014,09,22,03,40,13.40
2014,09,22,03,41,13.40
2014,09,22,03,42,13.40
2014,09,22,03,43,13.40
2014,09,22,03,44,13.40
2014,09,22,03,45,13.40
2014,09,22,03,46,13.40
2014,09,22,03,47,13.40
2014,09,22,03,48,13.40
2014,09,22,03,49,13.40
2014,09,22,03,50,13.40
2014,09,22,03,51,13.40
2014,09,22,03,52,13.40
2014,09,22,03,53,13.40
2014,09,22,03,54,13.40
2014,09,22,03,55,13.40
2014,09,22,03,56,13.40
2014,09,22,03,57,13.40
2014,09,22,03,58,13.40
2014,09,22,03,59,13.40
2014,09,22,04,00,13.40
2014,09,22,04,01,13.40
2014,09,22,04,02,13.40
2014,09,22,04,03,13.40
2014,09,22,04,04,13.40
2014,09,22,04,05,13.40
2014,09,22,04,06,13.40
2014,09,22,04,07,13.40
2014,09,22,04,08,13.40
2014,09,22,04,09,13.40
2014,09,22,04,10,13.40
2014,09,22,04,11,13.40
2014,09,22,04,12,13.40
2014,09,22,04,13,13.40
2014,09,22,04,14,13.40
2014,09,22,04,15,13.40
2014,09,22,04,16,13.40
2014,09,22,04,17,13.40
2014,09,22,04,18,13.40
2014,09,22,04,19,13.40
2014,09,22,04,20,13.40
2014,09,22,04,21,13.30
2014,09,22,04,22,13.30
2014,09,22,04,23,13.30
2014,09,22,04,24,13.30
2014,09,22,04,25,13.30
2014,09,22,04,26,13.30
2014,09,22,04,27,13.30
2014,09,22,04,28,13.30
2014,09,22,04,29,13.30
2014,09,22,04,30,13.30
2014,09,22,04,31,13.30
2014,09,22,04,32,13.30
2014,09,22,04,33,13.30
2014,09,22,04,34,13.30
2014,09,22,04,35,13.40
2014,09,22,04,36,13.40
2014,09,22,04,37,13.40
2014,09,22,04,38,13.40
2014,09,22,04,39,13.40
2014,09,22,04,40,13.40
2014,09,22,04,41,13.40
2014,09,22,04,42,13.40
2014,09,22,04,43,13.40
2014,09,22,04,44,13.40
2014,09,22,04,45,13.40
2014,09,22,04,46,13.40
2014,09,22,04,47,13.40
2014,09,22,04,48,13.40
2014,09,22,04,49,13.40
2014,09,22,04,50,13.70
2014,09,22,04,51,13.70
2014,09,22,04,52,13.70
2014,09,22,04,53,13.70
2014,09,22,04,54,13.70
2014,09,22,04,55,13.70
2014,09,22,04,56,13.70
2014,09,22,04,57,13.70
2014,09,22,04,58,13.70
2014,09,22,04,59,13.70
2014,09,22,05,00,13.70
2014,09,22,05,01,13.70
2014,09,22,05,02,13.70
2014,09,22,05,03,13.70
2014,09,22,05,04,13.70
2014,09,22,05,05,13.70
2014,09,22,05,06,14.30
2014,09,22,05,07,14.30
2014,09,22,05,08,14.30
2014,09,22,05,09,14.30
2014,09,22,05,10,14.30
2014,09,22,05,11,14.30
2014,09,22,05,12,14.30
2014,09,22,05,13,14.30
2014,09,22,05,14,14.30
2014,09,22,05,15,14.30
2014,09,22,05,16,14.30
2014,09,22,05,17,14.30
2014,09,22,05,18,14.30
2014,09,22,05,19,14.30
2014,09,22,05,20,14.80
2014,09,22,05,21,14.80
2014,09,22,05,22,14.80
2014,09,22,05,23,14.80
2014,09,22,05,24,14.80
2014,09,22,05,25,14.80
2014,09,22,05,26,14.80
2014,09,22,05,27,14.80
2014,09,22,05,28,14.80
2014,09,22,05,29,14.80
2014,09,22,05,30,14.80
2014,09,22,05,31,14.80
2014,09,22,05,32,14.80
2014,09,22,05,33,14.80
2014,09,22,05,34,14.80
2014,09,22,05,35,14.80
2014,09,22,05,36,14.70
2014,09,22,05,37,14.70
2014,09,22,05,38,14.70
2014,09,22,05,39,14.70
2014,09,22,05,40,14.70
2014,09,22,05,41,14.70
2014,09,22,05,42,14.70
2014,09,22,05,43,14.70
2014,09,22,05,44,14.70
2014,09,22,05,45,14.70
2014,09,22,05,46,14.70
2014,09,22,05,47,14.70
2014,09,22,05,48,14.70
2014,09,22,05,49,14.70
2014,09,22,05,51,14.10
2014,09,22,05,52,14.10
2014,09,22,05,53,14.10
2014,09,22,05,54,14.10
2014,09,22,05,55,14.10
2014,09,22,05,56,14.10
2014,09,22,05,57,14.10
2014,09,22,05,58,14.10
2014,09,22,05,59,14.10
2014,09,22,06,00,14.10
2014,09,22,06,01,14.10
2014,09,22,06,02,14.10
2014,09,22,06,03,14.10
2014,09,22,06,04,14.10
2014,09,22,06,06,13.70
2014,09,22,06,07,13.70
2014,09,22,06,08,13.70
2014,09,22,06,09,13.70
2014,09,22,06,10,13.70
2014,09,22,06,11,13.70
2014,09,22,06,12,13.70
2014,09,22,06,13,13.70
2014,09,22,06,14,13.70
2014,09,22,06,15,13.70
2014,09,22,06,16,13.70
2014,09,22,06,17,13.70
2014,09,22,06,18,13.70
2014,09,22,06,19,13.70
2014,09,22,06,20,13.70
2014,09,22,06,21,13.60
2014,09,22,06,22,13.60
2014,09,22,06,23,13.60
2014,09,22,06,24,13.60
2014,09,22,06,25,13.60
2014,09,22,06,26,13.60
2014,09,22,06,27,13.60
2014,09,22,06,28,13.60
2014,09,22,06,29,13.60
2014,09,22,06,30,13.60
2014,09,22,06,31,13.60
2014,09,22,06,32,13.60
2014,09,22,06,33,13.60
2014,09,22,06,34,13.60
2014,09,22,06,35,13.60
2014,09,22,06,36,13.10
2014,09,22,06,37,13.10
2014,09,22,06,38,13.10
2014,09,22,06,39,13.10
2014,09,22,06,40,13.10
2014,09,22,06,41,13.10
2014,09,22,06,42,13.10
2014,09,22,06,43,13.10
2014,09,22,06,44,13.10
2014,09,22,06,45,13.10
2014,09,22,06,46,13.10
2014,09,22,06,47,13.10
2014,09,22,06,48,13.10
2014,09,22,06,49,13.10
2014,09,22,06,50,13.10
2014,09,22,06,51,13.10
2014,09,22,06,52,13.10
2014,09,22,06,53,13.10
2014,09,22,06,54,13.10
2014,09,22,06,55,13.10
2014,09,22,06,56,13.10
2014,09,22,06,57,13.10
2014,09,22,06,58,13.10
2014,09,22,06,59,13.10
2014,09,22,07,00,13.10
2014,09,22,07,01,13.10
2014,09,22,07,02,13.10
2014,09,22,07,03,13.10
2014,09,22,07,04,13.10
2014,09,22,07,05,12.90
2014,09,22,07,06,12.90
2014,09,22,07,07,12.90
2014,09,22,07,08,12.90
2014,09,22,07,09,12.90
2014,09,22,07,10,12.90
2014,09,22,07,11,12.90
2014,09,22,07,12,12.90
2014,09,22,07,13,12.90
2014,09,22,07,14,12.90
2014,09,22,07,15,12.90
2014,09,22,07,16,12.90
2014,09,22,07,17,12.90
2014,09,22,07,18,12.90
2014,09,22,07,19,12.90
2014,09,22,07,20,12.90
2014,09,22,07,21,12.70
2014,09,22,07,22,12.70
2014,09,22,07,23,12.70
2014,09,22,07,24,12.70
2014,09,22,07,25,12.70
2014,09,22,07,26,12.70
2014,09,22,07,27,12.70
2014,09,22,07,28,12.70
2014,09,22,07,29,12.70
2014,09,22,07,30,12.70
2014,09,22,07,31,12.70
2014,09,22,07,32,12.70
2014,09,22,07,33,12.70
2014,09,22,07,34,12.70
2014,09,22,07,35,12.70
2014,09,22,07,36,12.80
2014,09,22,07,37,12.80
2014,09,22,07,38,12.80
2014,09,22,07,39,12.80
2014,09,22,07,40,12.80
2014,09,22,07,41,12.80
2014,09,22,07,42,12.80
2014,09,22,07,43,12.80
2014,09,22,07,44,12.80
2014,09,22,07,45,12.80
2014,09,22,07,46,12.80
2014,09,22,07,47,12.80
2014,09,22,07,48,12.80
2014,09,22,07,49,12.80
2014,09,22,07,50,12.80
2014,09,22,07,51,12.90
2014,09,22,07,52,12.90
2014,09,22,07,53,12.90
2014,09,22,07,54,12.90
2014,09,22,07,55,12.90
2014,09,22,07,56,12.90
2014,09,22,07,57,12.90
2014,09,22,07,58,12.90
2014,09,22,07,59,12.90
2014,09,22,08,00,12.90
2014,09,22,08,01,12.90
2014,09,22,08,02,12.90
2014,09,22,08,03,12.90
2014,09,22,08,04,12.90
2014,09,22,08,05,12.90
2014,09,22,08,06,12.70
2014,09,22,08,07,12.70
2014,09,22,08,08,12.70
2014,09,22,08,09,12.70
2014,09,22,08,10,12.70
2014,09,22,08,11,12.70
2014,09,22,08,12,12.70
2014,09,22,08,13,12.70
2014,09,22,08,14,12.70
2014,09,22,08,15,12.70
2014,09,22,08,16,12.70
2014,09,22,08,17,12.70
2014,09,22,08,18,12.70
2014,09,22,08,19,12.70
2014,09,22,08,20,12.80
2014,09,22,08,21,12.80
2014,09,22,08,22,12.80
2014,09,22,08,23,12.80
2014,09,22,08,24,12.80
2014,09,22,08,25,12.80
2014,09,22,08,26,12.80
2014,09,22,08,27,12.80
2014,09,22,08,28,12.80
2014,09,22,08,29,12.80
2014,09,22,08,30,12.80
2014,09,22,08,31,12.80
2014,09,22,08,32,12.80
2014,09,22,08,33,12.80
2014,09,22,08,34,12.80
2014,09,22,08,35,12.80
2014,09,22,08,36,12.80
2014,09,22,08,37,12.80
2014,09,22,08,38,12.80
2014,09,22,08,39,12.80
2014,09,22,08,40,12.80
2014,09,22,08,41,12.80
2014,09,22,08,42,12.80
2014,09,22,08,43,12.80
2014,09,22,08,44,12.80
2014,09,22,08,45,12.80
2014,09,22,08,46,12.80
2014,09,22,08,47,12.80
2014,09,22,08,48,12.80
2014,09,22,08,49,12.80
2014,09,22,08,50,12.70
2014,09,22,08,51,12.70
2014,09,22,08,52,12.70
2014,09,22,08,53,12.70
2014,09,22,08,54,12.70
2014,09,22,08,55,12.70
2014,09,22,08,56,12.70
2014,09,22,08,57,12.70
2014,09,22,08,58,12.70
2014,09,22,08,59,12.70
2014,09,22,09,00,12.70
2014,09,22,09,01,12.70
2014,09,22,09,02,12.70
2014,09,22,09,03,12.70
2014,09,22,09,04,12.70
2014,09,22,09,05,12.70
2014,09,22,09,06,12.70
2014,09,22,09,07,12.70
2014,09,22,09,08,12.70
2014,09,22,09,09,12.70
2014,09,22,09,10,12.70
2014,09,22,09,11,12.70
2014,09,22,09,12,12.70
2014,09,22,09,13,12.70
2014,09,22,09,14,12.70
2014,09,22,09,15,12.70
2014,09,22,09,16,12.70
2014,09,22,09,17,12.70
2014,09,22,09,18,12.70
2014,09,22,09,19,12.70
2014,09,22,09,20,12.70
2014,09,22,09,21,12.70
2014,09,22,09,22,12.70
2014,09,22,09,23,12.70
2014,09,22,09,24,12.70
2014,09,22,09,25,12.70
2014,09,22,09,26,12.70
2014,09,22,09,27,12.70
2014,09,22,09,28,12.70
2014,09,22,09,29,12.70
2014,09,22,09,30,12.70
2014,09,22,09,31,12.70
2014,09,22,09,32,12.70
2014,09,22,09,33,12.70
2014,09,22,09,34,12.70
2014,09,22,09,35,12.90
2014,09,22,09,36,12.90
2014,09,22,09,37,12.90
2014,09,22,09,38,12.90
2014,09,22,09,39,12.90
2014,09,22,09,40,12.90
2014,09,22,09,41,12.90
2014,09,22,09,42,12.90
2014,09,22,09,43,12.90
2014,09,22,09,44,12.90
2014,09,22,09,45,12.90
2014,09,22,09,46,12.90
2014,09,22,09,47,12.90
2014,09,22,09,48,12.90
2014,09,22,09,49,12.90
2014,09,22,09,50,12.90
2014,09,22,09,51,12.90
2014,09,22,09,52,12.90
2014,09,22,09,53,12.90
2014,09,22,09,54,12.90
2014,09,22,09,55,12.90
2014,09,22,09,56,12.90
2014,09,22,09,57,12.90
2014,09,22,09,58,12.90
2014,09,22,09,59,12.90
2014,09,22,10,00,12.90
2014,09,22,10,01,12.90
2014,09,22,10,02,12.90
2014,09,22,10,03,12.90
2014,09,22,10,04,12.90
2014,09,22,10,05,12.90
2014,09,22,10,06,12.90
2014,09,22,10,07,12.90
2014,09,22,10,08,12.90
2014,09,22,10,09,12.90
2014,09,22,10,10,12.90
2014,09,22,10,11,12.90
2014,09,22,10,12,12.90
2014,09,22,10,13,12.90
2014,09,22,10,14,12.90
2014,09,22,10,15,12.90
2014,09,22,10,16,12.90
2014,09,22,10,17,12.90
2014,09,22,10,18,12.90
2014,09,22,10,19,12.90
2014,09,22,10,21,13.80
2014,09,22,10,22,13.80
2014,09,22,10,23,13.80
2014,09,22,10,24,13.80
2014,09,22,10,25,13.80
2014,09,22,10,26,13.80
2014,09,22,10,27,13.80
2014,09,22,10,28,13.80
2014,09,22,10,29,13.80
2014,09,22,10,30,13.80
2014,09,22,10,31,13.80
2014,09,22,10,32,13.80
2014,09,22,10,33,13.80
2014,09,22,10,34,13.80
2014,09,22,10,35,13.60
2014,09,22,10,36,13.60
2014,09,22,10,37,13.60
2014,09,22,10,38,13.60
2014,09,22,10,39,13.60
2014,09,22,10,40,13.60
2014,09,22,10,41,13.60
2014,09,22,10,42,13.60
2014,09,22,10,43,13.60
2014,09,22,10,44,13.60
2014,09,22,10,45,13.60
2014,09,22,10,46,13.60
2014,09,22,10,47,13.60
2014,09,22,10,48,13.60
2014,09,22,10,49,13.60
2014,09,22,10,50,13.60
2014,09,22,10,51,14.10
2014,09,22,10,52,14.10
2014,09,22,10,53,14.10
2014,09,22,10,54,14.10
2014,09,22,10,55,14.10
2014,09,22,10,56,14.10
2014,09,22,10,57,14.10
2014,09,22,10,58,14.10
2014,09,22,10,59,14.10
2014,09,22,11,00,14.10
2014,09,22,11,01,14.10
2014,09,22,11,02,14.10
2014,09,22,11,03,14.10
2014,09,22,11,04,14.10
2014,09,22,11,05,14.10
2014,09,22,11,06,15.10
2014,09,22,11,07,15.10
2014,09,22,11,08,15.10
2014,09,22,11,09,15.10
2014,09,22,11,10,15.10
2014,09,22,11,11,15.10
2014,09,22,11,12,15.10
2014,09,22,11,13,15.10
2014,09,22,11,14,15.10
2014,09,22,11,15,15.10
2014,09,22,11,16,15.10
2014,09,22,11,17,15.10
2014,09,22,11,18,15.10
2014,09,22,11,19,15.10
2014,09,22,11,20,15.30
2014,09,22,11,21,15.30
2014,09,22,11,22,15.30
2014,09,22,11,23,15.30
2014,09,22,11,24,15.30
2014,09,22,11,25,15.30
2014,09,22,11,26,15.30
2014,09,22,11,27,15.30
2014,09,22,11,28,15.30
2014,09,22,11,29,15.30
2014,09,22,11,30,15.30
2014,09,22,11,31,15.30
2014,09,22,11,32,15.30
2014,09,22,11,33,15.30
2014,09,22,11,34,15.30
2014,09,22,11,35,15.30
2014,09,22,11,36,15.70
2014,09,22,11,37,15.70
2014,09,22,11,38,15.70
2014,09,22,11,39,15.70
2014,09,22,11,40,15.70
2014,09,22,11,41,15.70
2014,09,22,11,42,15.70
2014,09,22,11,43,15.70
2014,09,22,11,44,15.70
2014,09,22,11,45,15.70
2014,09,22,11,46,15.70
2014,09,22,11,47,15.70
2014,09,22,11,48,15.70
2014,09,22,11,49,15.70
2014,09,22,11,51,14.80
2014,09,22,11,52,14.80
2014,09,22,11,53,14.80
2014,09,22,11,54,14.80
2014,09,22,11,55,14.80
2014,09,22,11,56,14.80
2014,09,22,11,57,14.80
2014,09,22,11,58,14.80
2014,09,22,11,59,14.80
2014,09,22,12,00,14.80
2014,09,22,12,01,14.80
2014,09,22,12,02,14.80
2014,09,22,12,03,14.80
2014,09,22,12,04,14.80
2014,09,22,12,05,14.30
2014,09,22,12,06,14.30
2014,09,22,12,07,14.30
2014,09,22,12,08,14.30
2014,09,22,12,09,14.30
2014,09,22,12,10,14.30
2014,09,22,12,11,14.30
2014,09,22,12,12,14.30
2014,09,22,12,13,14.30
2014,09,22,12,14,14.30
2014,09,22,12,15,14.30
2014,09,22,12,16,14.30
2014,09,22,12,17,14.30
2014,09,22,12,18,14.30
2014,09,22,12,19,14.30
2014,09,22,12,20,14.80
2014,09,22,12,21,14.80
2014,09,22,12,22,14.80
2014,09,22,12,23,14.80
2014,09,22,12,24,14.80
2014,09,22,12,25,14.80
2014,09,22,12,26,14.80
2014,09,22,12,27,14.80
2014,09,22,12,28,14.80
2014,09,22,12,29,14.80
2014,09,22,12,30,14.80
2014,09,22,12,31,14.80
2014,09,22,12,32,14.80
2014,09,22,12,33,14.80
2014,09,22,12,34,14.80
2014,09,22,12,35,14.70
2014,09,22,12,36,14.70
2014,09,22,12,37,14.70
2014,09,22,12,38,14.70
2014,09,22,12,39,14.70
2014,09,22,12,40,14.70
2014,09,22,12,41,14.70
2014,09,22,12,42,14.70
2014,09,22,12,43,14.70
2014,09,22,12,44,14.70
2014,09,22,12,45,14.70
2014,09,22,12,46,14.70
2014,09,22,12,47,14.70
2014,09,22,12,48,14.70
2014,09,22,12,49,14.70
2014,09,22,12,50,13.90
2014,09,22,12,51,13.90
2014,09,22,12,52,13.90
2014,09,22,12,53,13.90
2014,09,22,12,54,13.90
2014,09,22,12,55,13.90
2014,09,22,12,56,13.90
2014,09,22,12,57,13.90
2014,09,22,12,58,13.90
2014,09,22,12,59,13.90
2014,09,22,13,00,13.90
2014,09,22,13,01,13.90
2014,09,22,13,02,13.90
2014,09,22,13,03,13.90
2014,09,22,13,04,13.90
2014,09,22,13,05,13.90
2014,09,22,13,06,13.90
2014,09,22,13,07,13.90
2014,09,22,13,08,13.90
2014,09,22,13,09,13.90
2014,09,22,13,10,13.90
2014,09,22,13,11,13.90
2014,09,22,13,12,13.90
2014,09,22,13,13,13.90
2014,09,22,13,14,13.90
2014,09,22,13,15,13.90
2014,09,22,13,16,13.90
2014,09,22,13,17,13.90
2014,09,22,13,18,13.90
2014,09,22,13,19,13.90
2014,09,22,13,20,14.50
2014,09,22,13,21,14.50
2014,09,22,13,22,14.50
2014,09,22,13,23,14.50
2014,09,22,13,24,14.50
2014,09,22,13,25,14.50
2014,09,22,13,26,14.50
2014,09,22,13,27,14.50
2014,09,22,13,28,14.50
2014,09,22,13,29,14.50
2014,09,22,13,30,14.50
2014,09,22,13,31,14.50
2014,09,22,13,32,14.50
2014,09,22,13,33,14.50
2014,09,22,13,34,14.50
2014,09,22,13,35,13.80
2014,09,22,13,36,13.80
2014,09,22,13,37,13.80
2014,09,22,13,38,13.80
2014,09,22,13,39,13.80
2014,09,22,13,40,13.80
2014,09,22,13,41,13.80
2014,09,22,13,42,13.80
2014,09,22,13,43,13.80
2014,09,22,13,44,13.80
2014,09,22,13,45,13.80
2014,09,22,13,46,13.80
2014,09,22,13,47,13.80
2014,09,22,13,48,13.80
2014,09,22,13,49,13.80
2014,09,22,13,50,13.80
2014,09,22,13,51,13.60
2014,09,22,13,52,13.60
2014,09,22,13,53,13.60
2014,09,22,13,54,13.60
2014,09,22,13,55,13.60
2014,09,22,13,56,13.60
2014,09,22,13,57,13.60
2014,09,22,13,58,13.60
2014,09,22,13,59,13.60
2014,09,22,14,00,13.60
2014,09,22,14,01,13.60
2014,09,22,14,02,13.60
2014,09,22,14,03,13.60
2014,09,22,14,04,13.60
2014,09,22,14,05,13.00
2014,09,22,14,06,13.00
2014,09,22,14,07,13.00
2014,09,22,14,08,13.00
2014,09,22,14,09,13.00
2014,09,22,14,10,13.00
2014,09,22,14,11,13.00
2014,09,22,14,12,13.00
2014,09,22,14,13,13.00
2014,09,22,14,14,13.00
2014,09,22,14,15,13.00
2014,09,22,14,16,13.00
2014,09,22,14,17,13.00
2014,09,22,14,18,13.00
2014,09,22,14,19,13.00
2014,09,22,14,20,13.00
2014,09,22,14,21,13.00
2014,09,22,14,22,13.00
2014,09,22,14,23,13.00
2014,09,22,14,24,13.00
2014,09,22,14,25,13.00
2014,09,22,14,26,13.00
2014,09,22,14,27,13.00
2014,09,22,14,28,13.00
2014,09,22,14,29,13.00
2014,09,22,14,30,13.00
2014,09,22,14,31,13.00
2014,09,22,14,32,13.00
2014,09,22,14,33,13.00
2014,09,22,14,34,13.00
2014,09,22,14,35,13.30
2014,09,22,14,36,13.30
2014,09,22,14,37,13.30
2014,09,22,14,38,13.30
2014,09,22,14,39,13.30
2014,09,22,14,40,13.30
2014,09,22,14,41,13.30
2014,09,22,14,42,13.30
2014,09,22,14,43,13.30
2014,09,22,14,44,13.30
2014,09,22,14,45,13.30
2014,09,22,14,46,13.30
2014,09,22,14,47,13.30
2014,09,22,14,48,13.30
2014,09,22,14,49,13.30
2014,09,22,14,50,13.30
2014,09,22,14,51,13.40
2014,09,22,14,52,13.40
2014,09,22,14,53,13.40
2014,09,22,14,54,13.40
2014,09,22,14,55,13.40
2014,09,22,14,56,13.40
2014,09,22,14,57,13.40
2014,09,22,14,58,13.40
2014,09,22,14,59,13.40
2014,09,22,15,00,13.40
2014,09,22,15,01,13.40
2014,09,22,15,02,13.40
2014,09,22,15,03,13.40
2014,09,22,15,04,13.40
2014,09,22,15,05,13.10
2014,09,22,15,06,13.10
2014,09,22,15,07,13.10
2014,09,22,15,08,13.10
2014,09,22,15,09,13.10
2014,09,22,15,10,13.10
2014,09,22,15,11,13.10
2014,09,22,15,12,13.10
2014,09,22,15,13,13.10
2014,09,22,15,14,13.10
2014,09,22,15,15,13.10
2014,09,22,15,16,13.10
2014,09,22,15,17,13.10
2014,09,22,15,18,13.10
2014,09,22,15,19,13.10
2014,09,22,15,20,13.10
2014,09,22,15,21,13.10
2014,09,22,15,22,13.10
2014,09,22,15,23,13.10
2014,09,22,15,24,13.10
2014,09,22,15,25,13.10
2014,09,22,15,26,13.10
2014,09,22,15,27,13.10
2014,09,22,15,28,13.10
2014,09,22,15,29,13.10
2014,09,22,15,30,13.10
2014,09,22,15,31,13.10
2014,09,22,15,32,13.10
2014,09,22,15,33,13.10
2014,09,22,15,34,13.10
2014,09,22,15,35,13.60
2014,09,22,15,36,13.60
2014,09,22,15,37,13.60
2014,09,22,15,38,13.60
2014,09,22,15,39,13.60
2014,09,22,15,40,13.60
2014,09,22,15,41,13.60
2014,09,22,15,42,13.60
2014,09,22,15,43,13.60
2014,09,22,15,44,13.60
2014,09,22,15,45,13.60
2014,09,22,15,46,13.60
2014,09,22,15,47,13.60
2014,09,22,15,48,13.60
2014,09,22,15,49,13.60
2014,09,22,15,50,14.00
2014,09,22,15,51,14.00
2014,09,22,15,52,14.00
2014,09,22,15,53,14.00
2014,09,22,15,54,14.00
2014,09,22,15,55,14.00
2014,09,22,15,56,14.00
2014,09,22,15,57,14.00
2014,09,22,15,58,14.00
2014,09,22,15,59,14.00
2014,09,22,16,00,14.00
2014,09,22,16,01,14.00
2014,09,22,16,02,14.00
2014,09,22,16,03,14.00
2014,09,22,16,04,14.00
2014,09,22,16,05,14.00
2014,09,22,16,06,14.30
2014,09,22,16,07,14.30
2014,09,22,16,08,14.30
2014,09,22,16,09,14.30
2014,09,22,16,10,14.30
2014,09,22,16,11,14.30
2014,09,22,16,12,14.30
2014,09,22,16,13,14.30
2014,09,22,16,14,14.30
2014,09,22,16,15,14.30
2014,09,22,16,16,14.30
2014,09,22,16,17,14.30
2014,09,22,16,18,14.30
2014,09,22,16,19,14.30
2014,09,22,16,20,14.30
2014,09,22,16,21,14.30
2014,09,22,16,22,14.30
2014,09,22,16,23,14.30
2014,09,22,16,24,14.30
2014,09,22,16,25,14.30
2014,09,22,16,26,14.30
2014,09,22,16,27,14.30
2014,09,22,16,28,14.30
2014,09,22,16,29,14.30
2014,09,22,16,30,14.30
2014,09,22,16,31,14.30
2014,09,22,16,32,14.30
2014,09,22,16,33,14.30
2014,09,22,16,34,14.30
2014,09,22,16,35,14.30
2014,09,22,16,36,14.30
2014,09,22,16,37,14.30
2014,09,22,16,38,14.30
2014,09,22,16,39,14.30
2014,09,22,16,40,14.30
2014,09,22,16,41,14.30
2014,09,22,16,42,14.30
2014,09,22,16,43,14.30
2014,09,22,16,44,14.30
2014,09,22,16,45,14.30
2014,09,22,16,46,14.30
2014,09,22,16,47,14.30
2014,09,22,16,48,14.30
2014,09,22,16,49,14.30
2014,09,22,16,50,14.30
2014,09,22,16,51,14.30
2014,09,22,16,52,14.30
2014,09,22,16,53,14.30
2014,09,22,16,54,14.30
2014,09,22,16,55,14.30
2014,09,22,16,56,14.30
2014,09,22,16,57,14.30
2014,09,22,16,58,14.30
2014,09,22,16,59,14.30
2014,09,22,18,01,14.40
2014,09,22,18,02,14.40
2014,09,22,18,03,14.40
2014,09,22,18,04,14.40
2014,09,22,18,05,14.40
2014,09,22,18,06,14.40
2014,09,22,18,07,14.40
2014,09,22,18,08,14.40
2014,09,22,18,09,14.40
2014,09,22,18,10,14.40
2014,09,22,18,11,14.40
2014,09,22,18,12,14.40
2014,09,22,18,13,14.40
2014,09,22,18,14,14.40
2014,09,22,18,15,14.40
2014,09,22,18,16,14.40
2014,09,22,18,17,14.40
2014,09,22,18,18,14.40
2014,09,22,18,19,14.40
2014,09,22,18,20,14.40
2014,09,22,18,21,14.40
2014,09,22,18,22,14.40
2014,09,22,18,23,14.40
2014,09,22,18,24,14.40
2014,09,22,18,25,14.40
2014,09,22,18,26,14.40
2014,09,22,18,27,14.40
2014,09,22,18,28,14.40
2014,09,22,18,29,14.40
2014,09,22,18,30,14.40
2014,09,22,18,31,14.60
2014,09,22,18,32,14.60
2014,09,22,18,33,14.60
2014,09,22,18,34,14.60
2014,09,22,18,35,14.60
2014,09,22,18,36,14.60
2014,09,22,18,37,14.60
2014,09,22,18,38,14.60
2014,09,22,18,39,14.60
2014,09,22,18,40,14.60
2014,09,22,18,41,14.60
2014,09,22,18,42,14.60
2014,09,22,18,43,14.60
2014,09,22,18,44,14.60
2014,09,22,18,45,14.60
2014,09,22,18,46,14.60
2014,09,22,18,47,14.60
2014,09,22,18,48,14.60
2014,09,22,18,49,14.60
2014,09,22,18,50,14.60
2014,09,22,18,51,14.60
2014,09,22,18,52,14.60
2014,09,22,18,53,14.60
2014,09,22,18,54,14.60
2014,09,22,18,55,14.60
2014,09,22,18,56,14.60
2014,09,22,18,57,14.60
2014,09,22,18,58,14.60
2014,09,22,18,59,14.60
2014,09,22,19,00,14.60
2014,09,22,19,01,14.90
2014,09,22,19,02,14.90
2014,09,22,19,03,14.90
2014,09,22,19,04,14.90
2014,09,22,19,05,14.90
2014,09,22,19,06,14.90
2014,09,22,19,07,14.90
2014,09,22,19,08,14.90
2014,09,22,19,09,14.90
2014,09,22,19,10,14.90
2014,09,22,19,11,14.90
2014,09,22,19,12,14.90
2014,09,22,19,13,14.90
2014,09,22,19,14,14.90
2014,09,22,19,15,14.90
2014,09,22,19,16,15.30
2014,09,22,19,17,15.30
2014,09,22,19,18,15.30
2014,09,22,19,19,15.30
2014,09,22,19,20,15.30
2014,09,22,19,21,15.30
2014,09,22,19,22,15.30
2014,09,22,19,23,15.30
2014,09,22,19,24,15.30
2014,09,22,19,25,15.30
2014,09,22,19,26,15.30
2014,09,22,19,27,15.30
2014,09,22,19,28,15.30
2014,09,22,19,29,15.30
2014,09,22,19,30,15.30
2014,09,22,19,31,15.20
2014,09,22,19,32,15.20
2014,09,22,19,33,15.20
2014,09,22,19,34,15.20
2014,09,22,19,35,15.20
2014,09,22,19,36,15.20
2014,09,22,19,37,15.20
2014,09,22,19,38,15.20
2014,09,22,19,39,15.20
2014,09,22,19,40,15.20
2014,09,22,19,41,15.20
2014,09,22,19,42,15.20
2014,09,22,19,43,15.20
2014,09,22,19,44,15.20
2014,09,22,19,45,15.20
2014,09,22,19,46,15.00
2014,09,22,19,47,15.00
2014,09,22,19,48,15.00
2014,09,22,19,49,15.00
2014,09,22,19,50,15.00
2014,09,22,19,51,15.00
2014,09,22,19,52,15.00
2014,09,22,19,53,15.00
2014,09,22,19,54,15.00
2014,09,22,19,55,15.00
2014,09,22,19,56,15.00
2014,09,22,19,57,15.00
2014,09,22,19,58,15.00
2014,09,22,19,59,15.00
2014,09,22,20,00,15.00
2014,09,22,20,01,14.90
2014,09,22,20,02,14.90
2014,09,22,20,03,14.90
2014,09,22,20,04,14.90
2014,09,22,20,05,14.90
2014,09,22,20,06,14.90
2014,09,22,20,07,14.90
2014,09,22,20,08,14.90
2014,09,22,20,09,14.90
2014,09,22,20,10,14.90
2014,09,22,20,11,14.90
2014,09,22,20,12,14.90
2014,09,22,20,13,14.90
2014,09,22,20,14,14.90
2014,09,22,20,15,14.90
2014,09,22,20,16,14.00